Weather History for PALH - August, 2013

Change the Weather History Date:

Wednesday, August 28, 2013

  Actual Average Record
Temperature  
Mean Temperature 58 °F -  
Max Temperature 63 °F 59 °F 72 °F (2007)
Min Temperature 53 °F 46 °F 37 °F (1998)
Degree Days  
Heating Degree Days 8    
Growing Degree Days 8 (Base 50)    
Moisture  
Dew Point 49 °F    
Average Humidity 77    
Maximum Humidity 94    
Minimum Humidity 53    
Precipitation  
Precipitation 0.38 in - - ()
Sea Level Pressure  
Sea Level Pressure 29.67 in    
Wind  
Wind Speed 6 mph (ESE)    
Max Wind Speed 8 mph    
Max Gust Speed 18 mph    
Visibility 7 miles    
Events Rain    
Averages and records for this station are not official NWS values.
T = Trace of Precipitation, MM = Missing Value Source: NWS Daily Summary

Daily Weather History Graph

Daily Weather History Graph

Search for Another Location

Airport or City:

Trip Planner

Search our weather history database for the weather conditions in past years. The results will help you decide how hot, cold, wet, or windy it might be!

Date:

Astronomy

Aug. 28, 2013 Rise Set
Actual Time 6:42 AM AKDT 9:17 PM AKDT
Civil Twilight 5:54 AM AKDT 10:05 PM AKDT
Nautical Twilight 4:49 AM AKDT 11:09 PM AKDT
Astronomical Twilight 3:09 AM AKDT 12:44 AM AKDT
Moon 11:49 PM AKDT (8/28) 4:57 PM AKDT (8/28)
Length of Visible Light 16h 10m
Length of Day
14h 34m
Last Quarter, 46% of the Moon is Illuminated
Aug 28
Last Quarter
Sep 5
New
Sep 12
First Quarter
Sep 19
Full
Sep 26
Last Quarter

Hourly Weather History & Observations

Time (AKDT) Temp. Dew Point Humidity Pressure Visibility Wind Dir Wind Speed Gust Speed Precip Events Conditions
12:53 AM 55.9 °F 50.0 °F 80% 29.73 in 10.0 mi SSE 5.8 mph - N/A   Overcast
1:53 AM 57.0 °F 50.0 °F 77% 29.74 in 10.0 mi South 8.1 mph - N/A   Mostly Cloudy
2:53 AM 57.9 °F 50.0 °F 75% 29.73 in 10.0 mi South 8.1 mph - N/A   Overcast
3:53 AM 57.9 °F 46.0 °F 65% 29.73 in 10.0 mi SSW 8.1 mph 18.4 mph N/A   Overcast
4:53 AM 57.0 °F 48.9 °F 74% 29.74 in 10.0 mi South 5.8 mph - N/A   Mostly Cloudy
5:53 AM 55.9 °F 48.0 °F 75% 29.73 in 10.0 mi SSW 4.6 mph - N/A   Overcast
6:53 AM 55.0 °F 48.9 °F 80% 29.73 in 10.0 mi SW 3.5 mph - N/A   Clear
7:53 AM 55.0 °F 50.0 °F 83% 29.73 in 10.0 mi South 4.6 mph - N/A   Overcast
8:53 AM 57.0 °F 48.0 °F 72% 29.72 in 10.0 mi South 8.1 mph - N/A   Overcast
9:53 AM 57.9 °F 48.0 °F 70% 29.71 in 10.0 mi SSW 4.6 mph - N/A   Overcast
10:53 AM 57.9 °F 48.9 °F 72% 29.72 in 10.0 mi SSW 6.9 mph - N/A   Mostly Cloudy
11:53 AM 60.1 °F 48.9 °F 67% 29.70 in 10.0 mi Variable 5.8 mph - N/A   Partly Cloudy
12:53 PM 61.0 °F 48.0 °F 62% 29.70 in 8.0 mi SSW 4.6 mph - N/A   Scattered Clouds
1:53 PM 61.0 °F 46.9 °F 60% 29.69 in 6.0 mi NNW 6.9 mph - N/A   Haze
2:53 PM 62.1 °F 45.0 °F 53% 29.68 in 7.0 mi NNE 4.6 mph - N/A   Mostly Cloudy
3:45 PM 57.2 °F 48.2 °F 72% 29.67 in 2.5 mi NW 4.6 mph - 0.03 in Rain Rain
3:53 PM 57.9 °F 48.9 °F 72% 29.67 in 5.0 mi North 4.6 mph - 0.03 in Rain Light Rain
4:53 PM 59.0 °F 50.0 °F 72% 29.65 in 6.0 mi Calm Calm - 0.01 in Rain Light Rain
5:53 PM 59.0 °F 48.9 °F 69% 29.63 in 8.0 mi NNE 4.6 mph - 0.00 in   Overcast
6:53 PM 57.9 °F 48.9 °F 72% 29.61 in 7.0 mi NE 3.5 mph - N/A   Overcast
7:53 PM 55.0 °F 50.0 °F 83% 29.60 in 4.0 mi ENE 5.8 mph - 0.02 in Rain Light Rain
8:14 PM 55.4 °F 51.8 °F 88% 29.61 in 2.5 mi Calm Calm - 0.03 in Rain Rain
8:39 PM 55.4 °F 51.8 °F 88% 29.60 in 3.0 mi ENE 3.5 mph - 0.07 in Rain Light Rain
8:53 PM 55.0 °F 52.0 °F 89% 29.61 in 2.5 mi ENE 5.8 mph - 0.10 in Rain Rain
9:02 PM 55.4 °F 51.8 °F 88% 29.61 in 5.0 mi ENE 5.8 mph - 0.01 in Rain Light Rain
9:53 PM 54.0 °F 52.0 °F 93% 29.61 in 3.0 mi ENE 5.8 mph - 0.14 in Rain Rain
10:53 PM 54.0 °F 51.1 °F 90% 29.60 in 6.0 mi NE 6.9 mph - 0.05 in Rain Light Rain
11:37 PM 53.6 °F 51.8 °F 94% 29.59 in 6.0 mi NNE 5.8 mph - 0.03 in Rain Light Rain
11:53 PM 54.0 °F 52.0 °F 93% 29.59 in 6.0 mi NNE 8.1 mph - 0.03 in   Overcast